Weather History for Spencer, IA

Change the Weather History Date:

Tuesday, October 1, 2013

  Actual Average Record
Temperature  
Mean Temperature 64 °F -  
Max Temperature 81 °F 71 °F 89 °F (2006)
Min Temperature 48 °F 42 °F 24 °F (1975)
Growing Degree Days 14 (Base 50)    
Moisture  
Dew Point 41 °F    
Average Humidity 46    
Maximum Humidity 75    
Minimum Humidity 14    
Precipitation  
Precipitation 0.00 in - - ()
Sea Level Pressure  
Sea Level Pressure 29.87 in    
Wind  
Wind Speed 12 mph (WNW)    
Max Wind Speed 20 mph    
Max Gust Speed 28 mph    
Visibility 10 miles    
Events      
Averages and records for this station are not official NWS values.
T = Trace of Precipitation, MM = Missing Value Source: NWS Daily Summary

Daily Weather History Graph

Daily Weather History Graph

Search for Another Location

Airport:

Trip Planner

Search our weather history database for the weather conditions in past years. The results will help you decide how hot, cold, wet, or windy it might be!

Date:

Astronomy

Oct. 01, 2013 Rise Set
Actual Time 7:18 AM CDT 7:01 PM CDT
Civil Twilight 6:50 AM CDT 7:29 PM CDT
Nautical Twilight 6:17 AM CDT 8:02 PM CDT
Astronomical Twilight 5:43 AM CDT 8:36 PM CDT
Moon 3:49 AM CDT (10/1) 5:09 PM CDT (10/1)
Length of Visible Light 12h 39m
Length of Day
11h 43m
Waning Crescent, 12% of the Moon is Illuminated
Oct 1
Waning Crescent
Oct 4
New
Oct 11
First Quarter
Oct 18
Full
Oct 26
Last Quarter

Hourly Weather History & Observations

Time (CDT) Temp. Dew Point Humidity Pressure Visibility Wind Dir Wind Speed Gust Speed Precip Events Conditions
12:53 AM 66.9 °F 50.0 °F 54% 29.66 in 10.0 mi SSW 19.6 mph 27.6 mph N/A   Clear
1:53 AM 64.9 °F 50.0 °F 58% 29.66 in 10.0 mi SSW 16.1 mph - N/A   Clear
2:53 AM 64.0 °F 51.1 °F 63% 29.69 in 10.0 mi SW 12.7 mph - N/A   Clear
3:53 AM 64.9 °F 51.1 °F 61% 29.69 in 10.0 mi SW 18.4 mph 24.2 mph N/A   Clear
4:53 AM 64.0 °F 51.1 °F 63% 29.71 in 10.0 mi SW 16.1 mph 24.2 mph N/A   Clear
5:53 AM 62.1 °F 51.1 °F 67% 29.75 in 10.0 mi WSW 12.7 mph - N/A   Clear
6:53 AM 59.0 °F 51.1 °F 75% 29.80 in 10.0 mi West 10.4 mph - N/A   Clear
7:53 AM 59.0 °F 50.0 °F 72% 29.84 in 10.0 mi WNW 9.2 mph - N/A   Clear
8:53 AM 61.0 °F 48.9 °F 64% 29.87 in 10.0 mi WNW 8.1 mph - N/A   Clear
9:53 AM 64.0 °F 46.0 °F 52% 29.90 in 10.0 mi NNW 11.5 mph - N/A   Clear
10:53 AM 70.0 °F 39.9 °F 33% 29.92 in 10.0 mi NNW 9.2 mph - N/A   Clear
11:53 AM 73.0 °F 34.0 °F 24% 29.92 in 10.0 mi North 9.2 mph - N/A   Clear
12:53 PM 77.0 °F 30.9 °F 19% 29.92 in 10.0 mi NNW 9.2 mph - N/A   Clear
1:53 PM 79.0 °F 28.9 °F 16% 29.93 in 10.0 mi Variable 3.5 mph - N/A   Clear
2:53 PM 79.0 °F 28.0 °F 15% 29.93 in 10.0 mi WNW 4.6 mph - N/A   Clear
3:53 PM 81.0 °F 28.0 °F 14% 29.93 in 10.0 mi North 8.1 mph 16.1 mph N/A   Partly Cloudy
4:53 PM 80.1 °F 30.0 °F 16% 29.93 in 10.0 mi NNW 8.1 mph - N/A   Partly Cloudy
5:53 PM 79.0 °F 28.9 °F 16% 29.93 in 10.0 mi NNW 5.8 mph - N/A   Clear
6:53 PM 72.0 °F 34.0 °F 25% 29.94 in 10.0 mi North 4.6 mph - N/A   Clear
7:53 PM 64.0 °F 36.0 °F 35% 29.96 in 10.0 mi Calm Calm - N/A   Clear
8:53 PM 55.0 °F 37.0 °F 51% 29.98 in 10.0 mi Calm Calm - N/A   Clear
9:53 PM 51.1 °F 39.0 °F 63% 30.00 in 10.0 mi Calm Calm - N/A   Clear
10:53 PM 48.9 °F 39.0 °F 69% 30.01 in 10.0 mi North 3.5 mph - N/A   Clear
11:53 PM 48.0 °F 39.0 °F 71% 30.01 in 10.0 mi North 4.6 mph - N/A   Clear